Location: Brno
(49.2000°N, 16.6330°E)
Time: 19:04:07
(UTC+02:00)

Transit 4A - Pass Details

Date: 30 July 2021
Orbit: 871 x 974 km, 66.8° (Epoch: 16 September)

Event Time Altitude Azimuth Distance (km) Brightness Sun altitude
Rises 01:58:34 0° 222° (SW) 3,489 - -21.1°
Reaches altitude 10° 02:01:05 10° 224° (SW) 2,541 - -20.9°
Exits shadow 02:04:16 33° 233° (SW) 1,426 8.5 -20.8°
Maximum altitude 02:06:56 70° 308° (NW) 929 7.9 -20.7°
Drops below altitude 10° 02:12:46 10° 33° (NNE) 2,528 11.3 -20.4°
Sets 02:15:16 0° 36° (NE) 3,470 12.2 -20.3°
